Private Wetterstation Sandau
Wetterdaten: Mittwoch, 19.09.2012
Datum Zeit Temp. A. Feuchte A. Luftdruck Regen Wind Richtung Richtung Taupunkt Windchill
19.09.2012 00:01 13,4 C 81 % 1011,2 hPa 0,0 l/m 5,8 km/h (2 Bft) NW 315 10,2 C 13,4 C
19.09.2012 00:06 13,3 C 80 % 1011,2 hPa 0,0 l/m 8,3 km/h (2 Bft) W-SW 247 9,9 C 13,3 C
19.09.2012 00:11 13,3 C 80 % 1011,3 hPa 0,0 l/m 6,8 km/h (2 Bft) W-NW 292 9,9 C 13,3 C
19.09.2012 00:16 13,2 C 80 % 1011,2 hPa 0,0 l/m 3,6 km/h (1 Bft) W 270 9,8 C 13,2 C
19.09.2012 00:21 13,2 C 80 % 1011,4 hPa 0,0 l/m 8,6 km/h (2 Bft) W-NW 292 9,8 C 13,2 C
19.09.2012 00:26 13,1 C 79 % 1011,4 hPa 0,0 l/m 8,3 km/h (2 Bft) W 270 9,5 C 13,1 C
19.09.2012 00:31 13,1 C 79 % 1011,6 hPa 0,0 l/m 4,7 km/h (1 Bft) W-NW 292 9,5 C 13,1 C
19.09.2012 00:36 13,0 C 79 % 1011,7 hPa 0,0 l/m 3,2 km/h (1 Bft) W 270 9,4 C 13,0 C
19.09.2012 00:41 12,9 C 79 % 1011,6 hPa 0,0 l/m 4,3 km/h (1 Bft) W-NW 292 9,3 C 12,9 C
19.09.2012 00:46 12,9 C 79 % 1011,6 hPa 0,0 l/m 5,4 km/h (1 Bft) W-NW 292 9,3 C 12,9 C
19.09.2012 00:51 12,9 C 79 % 1011,5 hPa 0,0 l/m 9,4 km/h (2 Bft) NW 315 9,3 C 12,9 C
19.09.2012 00:56 12,8 C 79 % 1011,5 hPa 0,0 l/m 7,2 km/h (2 Bft) NW 315 9,2 C 12,8 C
19.09.2012 01:01 12,8 C 79 % 1011,4 hPa 0,0 l/m 9,4 km/h (2 Bft) W 270 9,2 C 12,8 C
19.09.2012 01:06 12,7 C 79 % 1011,6 hPa 0,0 l/m 10,4 km/h (2 Bft) W-NW 292 9,2 C 12,7 C
19.09.2012 01:11 12,6 C 79 % 1011,6 hPa 0,0 l/m 10,1 km/h (2 Bft) NW 315 9,1 C 12,6 C
19.09.2012 01:16 12,6 C 79 % 1011,5 hPa 0,0 l/m 9,7 km/h (2 Bft) W-NW 292 9,1 C 12,6 C
19.09.2012 01:21 12,6 C 79 % 1011,6 hPa 0,0 l/m 1,8 km/h (1 Bft) W-NW 292 9,1 C 12,6 C
19.09.2012 01:26 12,5 C 79 % 1011,7 hPa 0,0 l/m 5,0 km/h (1 Bft) W 270 9,0 C 12,5 C
19.09.2012 01:31 12,5 C 80 % 1011,7 hPa 0,0 l/m 2,2 km/h (1 Bft) W 270 9,1 C 12,5 C
19.09.2012 01:36 12,4 C 80 % 1011,6 hPa 0,0 l/m 4,7 km/h (1 Bft) W-NW 292 9,0 C 12,4 C
19.09.2012 01:41 12,4 C 80 % 1011,7 hPa 0,0 l/m 4,3 km/h (1 Bft) W 270 9,0 C 12,4 C
19.09.2012 01:46 12,4 C 80 % 1011,8 hPa 0,0 l/m 5,4 km/h (1 Bft) W-NW 292 9,0 C 12,4 C
19.09.2012 01:51 12,3 C 80 % 1011,8 hPa 0,0 l/m 6,5 km/h (2 Bft) NW 315 8,9 C 12,3 C
19.09.2012 01:56 12,3 C 80 % 1011,8 hPa 0,0 l/m 5,0 km/h (1 Bft) W-SW 247 8,9 C 12,3 C
19.09.2012 02:01 12,3 C 80 % 1011,9 hPa 0,0 l/m 5,4 km/h (1 Bft) W-NW 292 8,9 C 12,3 C
19.09.2012 02:06 12,2 C 80 % 1012,0 hPa 0,0 l/m 5,0 km/h (1 Bft) W-SW 247 8,9 C 12,2 C
19.09.2012 02:11 12,2 C 80 % 1012,0 hPa 0,0 l/m 4,0 km/h (1 Bft) S-SW 202 8,9 C 12,2 C
19.09.2012 02:16 12,2 C 79 % 1012,0 hPa 0,0 l/m 4,3 km/h (1 Bft) W-SW 247 8,7 C 12,2 C
19.09.2012 02:21 12,1 C 79 % 1012,1 hPa 0,0 l/m 5,0 km/h (1 Bft) W-SW 247 8,6 C 12,1 C
19.09.2012 02:26 12,1 C 79 % 1012,0 hPa 0,0 l/m 5,0 km/h (1 Bft) W-SW 247 8,6 C 12,1 C
19.09.2012 02:31 12,1 C 79 % 1012,1 hPa 0,0 l/m 9,4 km/h (2 Bft) W-SW 247 8,6 C 12,1 C
19.09.2012 02:36 12,1 C 80 % 1012,2 hPa 0,0 l/m 3,6 km/h (1 Bft) W 270 8,8 C 12,1 C
19.09.2012 02:41 12,1 C 80 % 1012,2 hPa 0,0 l/m 10,8 km/h (2 Bft) W 270 8,8 C 12,1 C
19.09.2012 02:46 12,0 C 80 % 1012,2 hPa 0,0 l/m 9,7 km/h (2 Bft) W 270 8,7 C 12,0 C
19.09.2012 02:51 11,9 C 80 % 1012,1 hPa 0,0 l/m 9,7 km/h (2 Bft) W-NW 292 8,6 C 11,9 C
19.09.2012 02:56 11,9 C 80 % 1012,0 hPa 0,0 l/m 3,6 km/h (1 Bft) W-NW 292 8,6 C 11,9 C
19.09.2012 03:01 11,9 C 80 % 1012,0 hPa 0,0 l/m 5,0 km/h (1 Bft) W 270 8,6 C 11,9 C
19.09.2012 03:06 11,8 C 80 % 1012,1 hPa 0,0 l/m 3,6 km/h (1 Bft) W-NW 292 8,5 C 11,8 C
19.09.2012 03:11 11,8 C 80 % 1012,1 hPa 0,0 l/m 1,8 km/h (1 Bft) W-SW 247 8,5 C 11,8 C
19.09.2012 03:16 11,8 C 80 % 1012,1 hPa 0,0 l/m 2,5 km/h (1 Bft) W-SW 247 8,5 C 11,8 C
19.09.2012 03:21 11,7 C 80 % 1012,1 hPa 0,0 l/m 9,4 km/h (2 Bft) W 270 8,4 C 11,7 C
19.09.2012 03:26 11,6 C 80 % 1012,2 hPa 0,0 l/m 7,9 km/h (2 Bft) W-SW 247 8,3 C 11,6 C
19.09.2012 03:31 11,6 C 81 % 1012,3 hPa 0,0 l/m 3,2 km/h (1 Bft) W 270 8,5 C 11,6 C
19.09.2012 03:36 11,5 C 81 % 1012,2 hPa 0,0 l/m 3,2 km/h (1 Bft) W-NW 292 8,4 C 11,5 C
19.09.2012 03:41 11,5 C 81 % 1012,3 hPa 0,0 l/m 5,0 km/h (1 Bft) W-NW 292 8,4 C 11,5 C
19.09.2012 03:46 11,4 C 81 % 1012,2 hPa 0,0 l/m 11,2 km/h (2 Bft) W-NW 292 8,3 C 11,4 C
19.09.2012 03:51 11,4 C 81 % 1012,4 hPa 0,0 l/m 5,0 km/h (1 Bft) W-SW 247 8,3 C 11,4 C
19.09.2012 03:56 11,3 C 81 % 1012,2 hPa 0,0 l/m 7,2 km/h (2 Bft) W 270 8,2 C 11,3 C
19.09.2012 04:01 11,3 C 81 % 1012,2 hPa 0,0 l/m 5,0 km/h (1 Bft) W-NW 292 8,2 C 11,3 C
19.09.2012 04:06 11,3 C 81 % 1012,3 hPa 0,0 l/m 5,0 km/h (1 Bft) W-NW 292 8,2 C 11,3 C
19.09.2012 04:11 11,2 C 81 % 1012,3 hPa 0,0 l/m 3,6 km/h (1 Bft) W-NW 292 8,1 C 11,2 C
19.09.2012 04:16 11,2 C 81 % 1012,4 hPa 0,0 l/m 2,9 km/h (1 Bft) W-NW 292 8,1 C 11,2 C
19.09.2012 04:21 11,1 C 81 % 1012,4 hPa 0,0 l/m 8,6 km/h (2 Bft) NW 315 8,0 C 11,1 C
19.09.2012 04:26 11,1 C 82 % 1012,3 hPa 0,0 l/m 9,0 km/h (2 Bft) W-NW 292 8,1 C 11,1 C
19.09.2012 04:31 11,0 C 82 % 1012,2 hPa 0,0 l/m 4,7 km/h (1 Bft) W-NW 292 8,0 C 11,0 C
19.09.2012 04:36 10,9 C 82 % 1012,3 hPa 0,0 l/m 2,5 km/h (1 Bft) W-NW 292 7,9 C 10,9 C
19.09.2012 04:41 10,9 C 82 % 1012,3 hPa 0,0 l/m 7,2 km/h (2 Bft) W-SW 247 7,9 C 10,9 C
19.09.2012 04:46 10,8 C 82 % 1012,4 hPa 0,0 l/m 5,4 km/h (1 Bft) NW 315 7,9 C 10,8 C
19.09.2012 04:51 10,8 C 82 % 1012,3 hPa 0,0 l/m 4,7 km/h (1 Bft) W-NW 292 7,9 C 10,8 C
19.09.2012 04:56 10,6 C 82 % 1012,3 hPa 0,0 l/m 7,2 km/h (2 Bft) W 270 7,7 C 10,6 C
19.09.2012 05:01 10,5 C 82 % 1012,3 hPa 0,0 l/m 10,8 km/h (2 Bft) W-NW 292 7,6 C 10,5 C
19.09.2012 05:06 10,4 C 82 % 1012,2 hPa 0,0 l/m 13,7 km/h (3 Bft) W 270 7,5 C 10,4 C
19.09.2012 05:11 10,4 C 83 % 1012,3 hPa 0,0 l/m 6,1 km/h (2 Bft) W-SW 247 7,6 C 10,4 C
19.09.2012 05:16 10,3 C 83 % 1012,4 hPa 0,0 l/m 10,4 km/h (2 Bft) W 270 7,5 C 10,3 C
19.09.2012 05:21 10,2 C 83 % 1012,4 hPa 0,0 l/m 4,3 km/h (1 Bft) W-NW 292 7,4 C 10,2 C
19.09.2012 05:26 10,1 C 83 % 1012,4 hPa 0,0 l/m 6,8 km/h (2 Bft) W-NW 292 7,3 C 10,1 C
19.09.2012 05:31 9,9 C 83 % 1012,4 hPa 0,0 l/m 6,8 km/h (2 Bft) W 270 7,2 C 9,2 C
19.09.2012 05:36 9,9 C 83 % 1012,5 hPa 0,0 l/m 2,5 km/h (1 Bft) W-NW 292 7,2 C 9,9 C
19.09.2012 05:41 9,8 C 84 % 1012,6 hPa 0,0 l/m 7,6 km/h (2 Bft) W-NW 292 7,2 C 8,9 C
19.09.2012 05:46 9,8 C 84 % 1012,6 hPa 0,0 l/m 5,8 km/h (2 Bft) NW 315 7,2 C 9,3 C
19.09.2012 05:51 9,6 C 84 % 1012,7 hPa 0,0 l/m 9,4 km/h (2 Bft) NW 315 7,0 C 8,3 C
19.09.2012 05:56 9,6 C 84 % 1012,7 hPa 0,0 l/m 0,0 km/h (0 Bft) W 270 7,0 C 9,6 C
19.09.2012 06:01 9,5 C 84 % 1012,8 hPa 0,0 l/m 1,8 km/h (1 Bft) W-NW 292 6,9 C 9,5 C
19.09.2012 06:06 9,5 C 84 % 1012,9 hPa 0,0 l/m 3,2 km/h (1 Bft) W-NW 292 6,9 C 9,5 C
19.09.2012 06:11 9,4 C 84 % 1012,9 hPa 0,0 l/m 3,6 km/h (1 Bft) W-SW 247 6,8 C 9,4 C
19.09.2012 06:16 9,3 C 84 % 1013,0 hPa 0,0 l/m 0,0 km/h (0 Bft) W 270 6,7 C 9,3 C
19.09.2012 06:21 9,3 C 84 % 1013,0 hPa 0,0 l/m 11,9 km/h (2 Bft) W 270 6,7 C 7,5 C
19.09.2012 06:26 9,2 C 84 % 1013,1 hPa 0,0 l/m 3,2 km/h (1 Bft) W-NW 292 6,6 C 9,2 C
19.09.2012 06:31 9,1 C 85 % 1013,1 hPa 0,0 l/m 6,5 km/h (2 Bft) W-SW 247 6,7 C 8,3 C
19.09.2012 06:36 9,1 C 85 % 1013,1 hPa 0,0 l/m 1,8 km/h (1 Bft) W 270 6,7 C 9,1 C
19.09.2012 06:41 9,0 C 85 % 1013,1 hPa 0,0 l/m 6,1 km/h (2 Bft) W 270 6,6 C 8,3 C
19.09.2012 06:46 8,9 C 85 % 1013,2 hPa 0,0 l/m 9,7 km/h (2 Bft) W-SW 247 6,5 C 7,4 C
19.09.2012 06:51 8,9 C 85 % 1013,2 hPa 0,0 l/m 13,0 km/h (3 Bft) W 270 6,5 C 6,8 C
19.09.2012 06:56 8,8 C 85 % 1013,2 hPa 0,0 l/m 14,0 km/h (3 Bft) W 270 6,4 C 6,6 C
19.09.2012 07:01 8,8 C 86 % 1013,2 hPa 0,0 l/m 14,4 km/h (3 Bft) W 270 6,6 C 6,5 C
19.09.2012 07:06 8,7 C 86 % 1013,3 hPa 0,0 l/m 14,4 km/h (3 Bft) W 270 6,5 C 6,4 C
19.09.2012 07:11 8,6 C 86 % 1013,4 hPa 0,0 l/m 8,3 km/h (2 Bft) W-SW 247 6,4 C 7,3 C
19.09.2012 07:16 8,6 C 86 % 1013,5 hPa 0,0 l/m 6,1 km/h (2 Bft) W 270 6,4 C 7,8 C
19.09.2012 07:21 8,6 C 86 % 1013,6 hPa 0,0 l/m 5,4 km/h (1 Bft) W 270 6,4 C 8,0 C
19.09.2012 07:26 8,6 C 86 % 1013,6 hPa 0,0 l/m 5,4 km/h (1 Bft) W 270 6,4 C 8,0 C
19.09.2012 07:31 8,7 C 86 % 1013,7 hPa 0,0 l/m 20,5 km/h (4 Bft) W-SW 247 6,5 C 5,7 C
19.09.2012 07:36 8,8 C 86 % 1013,7 hPa 0,0 l/m 5,4 km/h (1 Bft) W 270 6,6 C 8,3 C
19.09.2012 07:41 8,9 C 86 % 1013,6 hPa 0,0 l/m 7,2 km/h (2 Bft) W-SW 247 6,7 C 7,9 C
19.09.2012 07:46 8,9 C 85 % 1013,6 hPa 0,0 l/m 9,0 km/h (2 Bft) W 270 6,5 C 7,5 C
19.09.2012 07:51 9,0 C 85 % 1013,7 hPa 0,0 l/m 4,0 km/h (1 Bft) W 270 6,6 C 9,0 C
19.09.2012 07:56 9,1 C 85 % 1013,7 hPa 0,0 l/m 6,5 km/h (2 Bft) W 270 6,7 C 8,3 C
19.09.2012 08:01 9,1 C 85 % 1013,8 hPa 0,0 l/m 4,0 km/h (1 Bft) W-NW 292 6,7 C 9,1 C
19.09.2012 08:06 9,2 C 84 % 1013,9 hPa 0,0 l/m 13,3 km/h (3 Bft) W 270 6,6 C 7,2 C
19.09.2012 08:11 9,3 C 84 % 1013,9 hPa 0,0 l/m 12,2 km/h (2 Bft) W-SW 247 6,7 C 7,4 C
19.09.2012 08:16 9,4 C 84 % 1013,9 hPa 0,0 l/m 7,9 km/h (2 Bft) W-SW 247 6,8 C 8,3 C
19.09.2012 08:21 9,5 C 84 % 1013,9 hPa 0,0 l/m 6,1 km/h (2 Bft) SW 225 6,9 C 8,9 C
19.09.2012 08:26 9,6 C 84 % 1014,0 hPa 0,0 l/m 18,0 km/h (3 Bft) W 270 7,0 C 7,1 C
19.09.2012 08:31 9,7 C 83 % 1014,0 hPa 0,0 l/m 4,7 km/h (1 Bft) W-NW 292 7,0 C 9,5 C
19.09.2012 08:36 9,8 C 83 % 1014,0 hPa 0,0 l/m 1,4 km/h (1 Bft) W 270 7,1 C 9,8 C
19.09.2012 08:41 9,9 C 82 % 1014,0 hPa 0,0 l/m 1,8 km/h (1 Bft) W 270 7,0 C 9,9 C
19.09.2012 08:46 10,1 C 82 % 1014,2 hPa 0,0 l/m 5,4 km/h (1 Bft) W-SW 247 7,2 C 10,1 C
19.09.2012 08:51 10,3 C 82 % 1014,1 hPa 0,0 l/m 8,3 km/h (2 Bft) W 270 7,4 C 10,3 C
19.09.2012 08:56 10,4 C 81 % 1014,1 hPa 0,0 l/m 6,5 km/h (2 Bft) W-SW 247 7,3 C 10,4 C
19.09.2012 09:01 10,5 C 81 % 1014,2 hPa 0,0 l/m 6,8 km/h (2 Bft) W-NW 292 7,4 C 10,5 C
19.09.2012 09:06 10,8 C 80 % 1014,2 hPa 0,0 l/m 6,1 km/h (2 Bft) W 270 7,5 C 10,8 C
19.09.2012 09:11 10,8 C 79 % 1014,2 hPa 0,0 l/m 15,1 km/h (3 Bft) W-NW 292 7,3 C 10,8 C
19.09.2012 09:16 10,9 C 79 % 1014,3 hPa 0,0 l/m 17,3 km/h (3 Bft) W 270 7,4 C 10,9 C
19.09.2012 09:21 11,1 C 78 % 1014,5 hPa 0,0 l/m 5,0 km/h (1 Bft) W 270 7,4 C 11,1 C
19.09.2012 09:26 11,2 C 77 % 1014,5 hPa 0,0 l/m 14,0 km/h (3 Bft) W-SW 247 7,3 C 11,2 C
19.09.2012 09:31 11,3 C 77 % 1014,5 hPa 0,0 l/m 4,3 km/h (1 Bft) W-NW 292 7,4 C 11,3 C
19.09.2012 09:36 11,5 C 77 % 1014,6 hPa 0,0 l/m 8,3 km/h (2 Bft) NW 315 7,6 C 11,5 C
19.09.2012 09:41 11,7 C 76 % 1014,6 hPa 0,0 l/m 7,6 km/h (2 Bft) SW 225 7,6 C 11,7 C
19.09.2012 09:46 11,9 C 75 % 1014,6 hPa 0,0 l/m 6,1 km/h (2 Bft) W-NW 292 7,6 C 11,9 C
19.09.2012 09:51 12,0 C 75 % 1014,6 hPa 0,0 l/m 12,2 km/h (2 Bft) NW 315 7,7 C 12,0 C
19.09.2012 09:56 12,1 C 74 % 1014,8 hPa 0,0 l/m 9,4 km/h (2 Bft) W-SW 247 7,6 C 12,1 C
19.09.2012 10:01 12,2 C 73 % 1014,7 hPa 0,0 l/m 7,2 km/h (2 Bft) W-NW 292 7,5 C 12,2 C
19.09.2012 10:06 12,3 C 72 % 1014,8 hPa 0,0 l/m 4,0 km/h (1 Bft) N-NW 337 7,4 C 12,3 C
19.09.2012 10:11 12,4 C 72 % 1014,8 hPa 0,0 l/m 15,5 km/h (3 Bft) W-SW 247 7,5 C 12,4 C
19.09.2012 10:16 12,5 C 71 % 1014,9 hPa 0,0 l/m 13,0 km/h (3 Bft) W 270 7,4 C 12,5 C
19.09.2012 10:21 12,6 C 71 % 1015,0 hPa 0,0 l/m 19,1 km/h (3 Bft) W 270 7,5 C 12,6 C
19.09.2012 10:26 12,8 C 70 % 1015,0 hPa 0,0 l/m 11,5 km/h (2 Bft) NW 315 7,5 C 12,8 C
19.09.2012 10:31 12,9 C 69 % 1014,9 hPa 0,0 l/m 5,8 km/h (2 Bft) NW 315 7,4 C 12,9 C
19.09.2012 10:36 13,1 C 69 % 1015,0 hPa 0,0 l/m 15,5 km/h (3 Bft) NW 315 7,5 C 13,1 C
19.09.2012 10:41 13,2 C 68 % 1014,9 hPa 0,0 l/m 16,2 km/h (3 Bft) NW 315 7,4 C 13,2 C
19.09.2012 10:46 13,3 C 68 % 1015,1 hPa 0,0 l/m 14,4 km/h (3 Bft) W-SW 247 7,5 C 13,3 C
19.09.2012 10:51 13,5 C 67 % 1015,1 hPa 0,0 l/m 16,9 km/h (3 Bft) N-NW 337 7,5 C 13,5 C
19.09.2012 10:56 13,6 C 67 % 1015,0 hPa 0,0 l/m 7,6 km/h (2 Bft) N 360 7,6 C 13,6 C
19.09.2012 11:01 13,8 C 67 % 1015,3 hPa 0,0 l/m 13,7 km/h (3 Bft) W-NW 292 7,8 C 13,8 C
19.09.2012 11:06 13,9 C 66 % 1015,2 hPa 0,0 l/m 4,0 km/h (1 Bft) N-NW 337 7,7 C 13,9 C
19.09.2012 11:11 13,9 C 65 % 1015,3 hPa 0,0 l/m 8,3 km/h (2 Bft) NW 315 7,4 C 13,9 C
19.09.2012 11:16 13,9 C 64 % 1015,4 hPa 0,0 l/m 17,3 km/h (3 Bft) W-SW 247 7,2 C 13,9 C
19.09.2012 11:21 14,0 C 64 % 1015,3 hPa 0,0 l/m 9,0 km/h (2 Bft) W-NW 292 7,3 C 14,0 C
19.09.2012 11:26 14,2 C 63 % 1015,5 hPa 0,0 l/m 15,8 km/h (3 Bft) NW 315 7,3 C 14,2 C
19.09.2012 11:31 14,4 C 62 % 1015,4 hPa 0,0 l/m 6,5 km/h (2 Bft) S 180 7,2 C 14,4 C
19.09.2012 11:36 14,6 C 62 % 1015,4 hPa 0,0 l/m 5,0 km/h (1 Bft) W 270 7,4 C 14,6 C
19.09.2012 11:41 14,9 C 61 % 1015,3 hPa 0,0 l/m 23,4 km/h (4 Bft) W-SW 247 7,4 C 14,9 C
19.09.2012 11:46 15,1 C 59 % 1015,3 hPa 0,0 l/m 23,0 km/h (4 Bft) W 270 7,1 C 15,1 C
19.09.2012 11:51 15,3 C 58 % 1015,3 hPa 0,0 l/m 28,1 km/h (4 Bft) W-SW 247 7,1 C 15,3 C
19.09.2012 11:56 15,4 C 57 % 1015,4 hPa 0,0 l/m 8,3 km/h (2 Bft) W 270 6,9 C 15,4 C
19.09.2012 12:01 15,7 C 56 % 1015,4 hPa 0,0 l/m 19,4 km/h (3 Bft) W-NW 292 6,9 C 15,7 C
19.09.2012 12:06 15,7 C 55 % 1015,5 hPa 0,0 l/m 4,0 km/h (1 Bft) NW 315 6,7 C 15,7 C
19.09.2012 12:11 15,4 C 55 % 1015,5 hPa 0,0 l/m 4,0 km/h (1 Bft) W-NW 292 6,4 C 15,4 C
19.09.2012 12:16 15,0 C 56 % 1015,5 hPa 0,0 l/m 18,0 km/h (3 Bft) N-NW 337 6,3 C 15,0 C
19.09.2012 12:21 14,9 C 58 % 1015,6 hPa 0,0 l/m 9,0 km/h (2 Bft) NW 315 6,7 C 14,9 C
19.09.2012 12:26 14,9 C 57 % 1015,7 hPa 0,0 l/m 11,2 km/h (2 Bft) NW 315 6,5 C 14,9 C
19.09.2012 12:31 14,9 C 56 % 1015,7 hPa 0,0 l/m 15,5 km/h (3 Bft) NW 315 6,2 C 14,9 C
19.09.2012 12:36 15,2 C 52 % 1015,8 hPa 0,0 l/m 19,8 km/h (3 Bft) W-NW 292 5,4 C 15,2 C
19.09.2012 12:41 14,9 C 52 % 1015,8 hPa 0,0 l/m 4,7 km/h (1 Bft) NW 315 5,1 C 14,9 C
19.09.2012 12:46 14,9 C 53 % 1016,0 hPa 0,0 l/m 13,3 km/h (3 Bft) W-NW 292 5,4 C 14,9 C
19.09.2012 12:51 14,9 C 54 % 1015,9 hPa 0,0 l/m 19,1 km/h (3 Bft) W-NW 292 5,7 C 14,9 C
19.09.2012 12:56 14,9 C 53 % 1016,0 hPa 0,0 l/m 8,3 km/h (2 Bft) W-NW 292 5,4 C 14,9 C
19.09.2012 13:01 15,3 C 51 % 1016,0 hPa 0,0 l/m 9,0 km/h (2 Bft) N-NO 22 5,2 C 15,3 C
19.09.2012 13:06 15,6 C 51 % 1016,0 hPa 0,0 l/m 20,5 km/h (4 Bft) W-SW 247 5,5 C 15,6 C
19.09.2012 13:11 15,9 C 52 % 1016,0 hPa 0,0 l/m 12,6 km/h (3 Bft) W-SW 247 6,1 C 15,9 C
19.09.2012 13:16 16,1 C 50 % 1016,1 hPa 0,0 l/m 3,2 km/h (1 Bft) NO 45 5,7 C 16,1 C
19.09.2012 13:21 16,3 C 49 % 1016,1 hPa 0,0 l/m 14,4 km/h (3 Bft) NW 315 5,6 C 16,3 C
19.09.2012 13:26 16,4 C 48 % 1016,2 hPa 0,0 l/m 15,5 km/h (3 Bft) NW 315 5,4 C 16,4 C
19.09.2012 13:31 16,0 C 47 % 1016,2 hPa 0,0 l/m 14,8 km/h (3 Bft) W 270 4,7 C 16,0 C
19.09.2012 13:36 15,6 C 48 % 1016,2 hPa 0,0 l/m 24,1 km/h (4 Bft) W-NW 292 4,6 C 15,6 C
19.09.2012 13:41 15,1 C 50 % 1016,3 hPa 0,0 l/m 12,2 km/h (2 Bft) W-SW 247 4,8 C 15,1 C
19.09.2012 13:46 14,9 C 50 % 1016,2 hPa 0,0 l/m 10,8 km/h (2 Bft) W 270 4,6 C 14,9 C
19.09.2012 13:51 14,9 C 51 % 1016,2 hPa 0,0 l/m 11,2 km/h (2 Bft) W 270 4,9 C 14,9 C
19.09.2012 13:56 14,9 C 52 % 1016,2 hPa 0,0 l/m 6,1 km/h (2 Bft) W-NW 292 5,1 C 14,9 C
19.09.2012 14:01 15,3 C 52 % 1016,1 hPa 0,0 l/m 10,1 km/h (2 Bft) W-SW 247 5,5 C 15,3 C
19.09.2012 14:06 15,8 C 51 % 1016,0 hPa 0,0 l/m 12,6 km/h (3 Bft) W-SW 247 5,7 C 15,8 C
19.09.2012 14:11 16,1 C 50 % 1016,0 hPa 0,0 l/m 15,1 km/h (3 Bft) W 270 5,7 C 16,1 C
19.09.2012 14:16 16,3 C 49 % 1016,1 hPa 0,0 l/m 5,0 km/h (1 Bft) SW 225 5,6 C 16,3 C
19.09.2012 14:21 16,2 C 49 % 1016,3 hPa 0,0 l/m 12,2 km/h (2 Bft) W-NW 292 5,5 C 16,2 C
19.09.2012 14:26 15,8 C 52 % 1016,3 hPa 0,0 l/m 3,6 km/h (1 Bft) W-SW 247 6,0 C 15,8 C
19.09.2012 14:31 15,2 C 56 % 1016,4 hPa 0,0 l/m 4,3 km/h (1 Bft) N-NW 337 6,5 C 15,2 C
19.09.2012 14:36 14,9 C 58 % 1016,4 hPa 0,0 l/m 4,3 km/h (1 Bft) NW 315 6,7 C 14,9 C
19.09.2012 14:41 14,5 C 59 % 1016,5 hPa 0,0 l/m 7,2 km/h (2 Bft) W-NW 292 6,6 C 14,5 C
19.09.2012 14:46 14,5 C 58 % 1016,4 hPa 0,0 l/m 10,8 km/h (2 Bft) W-SW 247 6,3 C 14,5 C
19.09.2012 14:51 14,9 C 56 % 1016,3 hPa 0,0 l/m 18,4 km/h (3 Bft) W 270 6,2 C 14,9 C
19.09.2012 14:56 15,1 C 51 % 1016,2 hPa 0,0 l/m 13,0 km/h (3 Bft) W-NW 292 5,0 C 15,1 C
19.09.2012 15:01 15,6 C 50 % 1016,3 hPa 0,0 l/m 4,7 km/h (1 Bft) W 270 5,2 C 15,6 C
19.09.2012 15:06 15,6 C 48 % 1016,3 hPa 0,0 l/m 8,3 km/h (2 Bft) W-NW 292 4,6 C 15,6 C
19.09.2012 15:11 15,8 C 48 % 1016,4 hPa 0,0 l/m 12,6 km/h (3 Bft) W-SW 247 4,8 C 15,8 C
19.09.2012 15:16 16,1 C 49 % 1016,3 hPa 0,0 l/m 20,9 km/h (4 Bft) NW 315 5,4 C 16,1 C
19.09.2012 15:21 16,4 C 48 % 1016,4 hPa 0,0 l/m 8,3 km/h (2 Bft) W-NW 292 5,4 C 16,4 C
19.09.2012 15:26 16,4 C 47 % 1016,4 hPa 0,0 l/m 19,1 km/h (3 Bft) N-NW 337 5,1 C 16,4 C
19.09.2012 15:31 16,1 C 47 % 1016,3 hPa 0,0 l/m 14,8 km/h (3 Bft) W 270 4,8 C 16,1 C
19.09.2012 15:36 16,0 C 48 % 1016,4 hPa 0,0 l/m 9,0 km/h (2 Bft) O-NO 67 5,0 C 16,0 C
19.09.2012 15:41 15,9 C 47 % 1016,3 hPa 0,0 l/m 11,2 km/h (2 Bft) NW 315 4,6 C 15,9 C
19.09.2012 15:46 16,1 C 48 % 1016,4 hPa 0,0 l/m 13,0 km/h (3 Bft) N-NW 337 5,1 C 16,1 C
19.09.2012 15:51 16,1 C 48 % 1016,4 hPa 0,0 l/m 13,7 km/h (3 Bft) NW 315 5,1 C 16,1 C
19.09.2012 15:56 15,9 C 49 % 1016,4 hPa 0,0 l/m 11,2 km/h (2 Bft) NW 315 5,2 C 15,9 C
19.09.2012 16:01 15,8 C 49 % 1016,4 hPa 0,0 l/m 11,2 km/h (2 Bft) N-NW 337 5,1 C 15,8 C
19.09.2012 16:06 15,6 C 49 % 1016,4 hPa 0,0 l/m 7,9 km/h (2 Bft) NW 315 4,9 C 15,6 C
19.09.2012 16:11 15,6 C 50 % 1016,5 hPa 0,0 l/m 14,4 km/h (3 Bft) W-NW 292 5,2 C 15,6 C
19.09.2012 16:16 15,4 C 50 % 1016,5 hPa 0,0 l/m 11,9 km/h (2 Bft) NW 315 5,0 C 15,4 C
19.09.2012 16:21 15,3 C 50 % 1016,6 hPa 0,0 l/m 2,2 km/h (1 Bft) W-NW 292 4,9 C 15,3 C
19.09.2012 16:26 15,3 C 49 % 1016,7 hPa 0,0 l/m 11,5 km/h (2 Bft) W-NW 292 4,7 C 15,3 C
19.09.2012 16:31 15,4 C 48 % 1016,6 hPa 0,0 l/m 14,4 km/h (3 Bft) W-NW 292 4,4 C 15,4 C
19.09.2012 16:36 15,8 C 48 % 1016,7 hPa 0,0 l/m 4,0 km/h (1 Bft) NW 315 4,8 C 15,8 C
19.09.2012 16:41 16,1 C 47 % 1016,8 hPa 0,0 l/m 7,6 km/h (2 Bft) N-NW 337 4,8 C 16,1 C
19.09.2012 16:46 16,2 C 46 % 1016,7 hPa 0,0 l/m 14,4 km/h (3 Bft) NW 315 4,6 C 16,2 C
19.09.2012 16:51 16,3 C 46 % 1016,8 hPa 0,0 l/m 11,9 km/h (2 Bft) NW 315 4,7 C 16,3 C
19.09.2012 16:56 16,4 C 46 % 1016,6 hPa 0,0 l/m 9,4 km/h (2 Bft) W-NW 292 4,8 C 16,4 C
19.09.2012 17:01 16,4 C 46 % 1016,7 hPa 0,0 l/m 8,3 km/h (2 Bft) NW 315 4,8 C 16,4 C
19.09.2012 17:06 16,4 C 45 % 1016,7 hPa 0,0 l/m 23,4 km/h (4 Bft) W-SW 247 4,4 C 16,4 C
19.09.2012 17:11 16,4 C 46 % 1016,8 hPa 0,0 l/m 5,4 km/h (1 Bft) W 270 4,8 C 16,4 C
19.09.2012 17:16 16,3 C 46 % 1016,8 hPa 0,0 l/m 15,1 km/h (3 Bft) W-NW 292 4,7 C 16,3 C
19.09.2012 17:21 16,1 C 46 % 1016,7 hPa 0,0 l/m 12,6 km/h (3 Bft) NW 315 4,5 C 16,1 C
19.09.2012 17:26 16,0 C 46 % 1016,8 hPa 0,0 l/m 4,7 km/h (1 Bft) NW 315 4,4 C 16,0 C
19.09.2012 17:31 16,1 C 47 % 1016,8 hPa 0,0 l/m 13,3 km/h (3 Bft) W 270 4,8 C 16,1 C
19.09.2012 17:36 15,9 C 46 % 1016,8 hPa 0,0 l/m 9,7 km/h (2 Bft) W-NW 292 4,3 C 15,9 C
19.09.2012 17:41 15,7 C 46 % 1016,9 hPa 0,0 l/m 18,7 km/h (3 Bft) W-NW 292 4,1 C 15,7 C
19.09.2012 17:46 15,4 C 47 % 1017,0 hPa 0,0 l/m 6,8 km/h (2 Bft) SW 225 4,1 C 15,4 C
19.09.2012 17:51 15,2 C 47 % 1017,0 hPa 0,0 l/m 23,8 km/h (4 Bft) W-NW 292 4,0 C 15,2 C
19.09.2012 17:56 15,2 C 48 % 1017,2 hPa 0,0 l/m 4,7 km/h (1 Bft) W-NW 292 4,3 C 15,2 C
19.09.2012 18:01 15,2 C 47 % 1017,2 hPa 0,0 l/m 16,6 km/h (3 Bft) W-NW 292 4,0 C 15,2 C
19.09.2012 18:06 15,1 C 48 % 1017,0 hPa 0,0 l/m 8,6 km/h (2 Bft) W-NW 292 4,2 C 15,1 C
19.09.2012 18:11 14,9 C 48 % 1017,0 hPa 0,0 l/m 16,6 km/h (3 Bft) N-NW 337 4,0 C 14,9 C
19.09.2012 18:16 14,8 C 49 % 1017,0 hPa 0,0 l/m 15,8 km/h (3 Bft) W-NW 292 4,2 C 14,8 C
19.09.2012 18:21 14,6 C 50 % 1017,1 hPa 0,0 l/m 7,2 km/h (2 Bft) N-NW 337 4,3 C 14,6 C
19.09.2012 18:26 14,4 C 50 % 1017,3 hPa 0,0 l/m 6,8 km/h (2 Bft) NW 315 4,1 C 14,4 C
19.09.2012 18:31 14,3 C 51 % 1017,3 hPa 0,0 l/m 8,3 km/h (2 Bft) W-NW 292 4,3 C 14,3 C
19.09.2012 18:36 14,3 C 51 % 1017,4 hPa 0,0 l/m 7,6 km/h (2 Bft) NW 315 4,3 C 14,3 C
19.09.2012 18:41 14,3 C 51 % 1017,5 hPa 0,0 l/m 10,4 km/h (2 Bft) NW 315 4,3 C 14,3 C
19.09.2012 18:46 14,2 C 51 % 1017,5 hPa 0,0 l/m 3,6 km/h (1 Bft) W-NW 292 4,2 C 14,2 C
19.09.2012 18:51 14,2 C 52 % 1017,4 hPa 0,0 l/m 6,8 km/h (2 Bft) NW 315 4,5 C 14,2 C
19.09.2012 18:56 14,1 C 52 % 1017,5 hPa 0,0 l/m 7,9 km/h (2 Bft) W-SW 247 4,4 C 14,1 C
19.09.2012 19:01 13,9 C 53 % 1017,6 hPa 0,0 l/m 5,4 km/h (1 Bft) W-NW 292 4,5 C 13,9 C
19.09.2012 19:06 13,8 C 53 % 1017,7 hPa 0,0 l/m 3,6 km/h (1 Bft) W 270 4,4 C 13,8 C
19.09.2012 19:11 13,6 C 53 % 1017,6 hPa 0,0 l/m 7,6 km/h (2 Bft) W-NW 292 4,2 C 13,6 C
19.09.2012 19:16 13,5 C 54 % 1017,7 hPa 0,0 l/m 4,7 km/h (1 Bft) W-NW 292 4,4 C 13,5 C
19.09.2012 19:21 13,3 C 54 % 1017,8 hPa 0,0 l/m 3,2 km/h (1 Bft) W 270 4,2 C 13,3 C
19.09.2012 19:26 13,1 C 55 % 1017,9 hPa 0,0 l/m 0,0 km/h (0 Bft) W-NW 292 4,3 C 13,1 C
19.09.2012 19:31 12,9 C 56 % 1017,9 hPa 0,0 l/m 4,7 km/h (1 Bft) NW 315 4,3 C 12,9 C
19.09.2012 19:36 12,8 C 57 % 1017,9 hPa 0,0 l/m 6,8 km/h (2 Bft) W-NW 292 4,5 C 12,8 C
19.09.2012 19:41 12,7 C 57 % 1018,1 hPa 0,0 l/m 3,6 km/h (1 Bft) W-NW 292 4,4 C 12,7 C
19.09.2012 19:46 12,5 C 58 % 1018,2 hPa 0,0 l/m 5,8 km/h (2 Bft) N-NW 337 4,5 C 12,5 C
19.09.2012 19:51 12,3 C 59 % 1018,3 hPa 0,0 l/m 3,6 km/h (1 Bft) N 360 4,5 C 12,3 C
19.09.2012 19:56 12,1 C 59 % 1018,4 hPa 0,0 l/m 0,0 km/h (0 Bft) N 360 4,3 C 12,1 C
19.09.2012 20:01 11,9 C 60 % 1018,5 hPa 0,0 l/m 2,5 km/h (1 Bft) N 360 4,4 C 11,9 C
19.09.2012 20:06 11,7 C 61 % 1018,5 hPa 0,0 l/m 0,0 km/h (0 Bft) N 360 4,4 C 11,7 C
19.09.2012 20:11 11,6 C 62 % 1018,5 hPa 0,0 l/m 0,0 km/h (0 Bft) N 360 4,6 C 11,6 C
19.09.2012 20:16 11,4 C 62 % 1018,5 hPa 0,0 l/m 1,1 km/h (1 Bft) N 360 4,4 C 11,4 C
19.09.2012 20:21 11,3 C 63 % 1018,6 hPa 0,0 l/m 0,0 km/h (0 Bft) N 360 4,5 C 11,3 C
19.09.2012 20:26 11,1 C 62 % 1018,5 hPa 0,0 l/m 0,0 km/h (0 Bft) N 360 4,1 C 11,1 C
19.09.2012 20:31 10,9 C 63 % 1018,7 hPa 0,0 l/m 0,0 km/h (0 Bft) N 360 4,1 C 10,9 C
19.09.2012 20:36 10,8 C 64 % 1018,8 hPa 0,0 l/m 0,0 km/h (0 Bft) N 360 4,3 C 10,8 C
19.09.2012 20:41 10,6 C 65 % 1018,8 hPa 0,0 l/m 0,0 km/h (0 Bft) N 360 4,3 C 10,6 C
19.09.2012 20:46 10,4 C 66 % 1018,9 hPa 0,0 l/m 3,2 km/h (1 Bft) N 360 4,3 C 10,4 C
19.09.2012 20:51 10,4 C 66 % 1018,9 hPa 0,0 l/m 0,0 km/h (0 Bft) N 360 4,3 C 10,4 C
19.09.2012 20:56 10,2 C 66 % 1018,8 hPa 0,0 l/m 0,0 km/h (0 Bft) N 360 4,1 C 10,2 C
19.09.2012 21:01 10,1 C 67 % 1018,7 hPa 0,0 l/m 1,1 km/h (1 Bft) N 360 4,3 C 10,1 C
19.09.2012 21:06 9,9 C 68 % 1018,9 hPa 0,0 l/m 0,0 km/h (0 Bft) N 360 4,3 C 9,9 C
19.09.2012 21:11 9,9 C 68 % 1018,8 hPa 0,0 l/m 0,0 km/h (0 Bft) N 360 4,3 C 9,9 C
19.09.2012 21:16 9,8 C 68 % 1018,7 hPa 0,0 l/m 0,0 km/h (0 Bft) N 360 4,2 C 9,8 C
19.09.2012 21:21 9,6 C 69 % 1018,9 hPa 0,0 l/m 1,4 km/h (1 Bft) N 360 4,2 C 9,6 C
19.09.2012 21:26 9,5 C 69 % 1018,9 hPa 0,0 l/m 0,0 km/h (0 Bft) N 360 4,1 C 9,5 C
19.09.2012 21:31 9,3 C 70 % 1018,9 hPa 0,0 l/m 0,0 km/h (0 Bft) N 360 4,1 C 9,3 C
19.09.2012 21:36 9,1 C 70 % 1019,0 hPa 0,0 l/m 0,0 km/h (0 Bft) N 360 3,9 C 9,1 C
19.09.2012 21:41 8,9 C 70 % 1019,2 hPa 0,0 l/m 1,8 km/h (1 Bft) S 180 3,7 C 8,9 C
19.09.2012 21:46 8,9 C 71 % 1019,1 hPa 0,0 l/m 1,4 km/h (1 Bft) S 180 3,9 C 8,9 C
19.09.2012 21:51 8,8 C 72 % 1019,1 hPa 0,0 l/m 2,2 km/h (1 Bft) S 180 4,0 C 8,8 C
19.09.2012 21:56 8,6 C 72 % 1019,0 hPa 0,0 l/m 0,0 km/h (0 Bft) S 180 3,8 C 8,6 C
19.09.2012 22:01 8,6 C 73 % 1019,2 hPa 0,0 l/m 1,1 km/h (1 Bft) W-SW 247 4,0 C 8,6 C
19.09.2012 22:06 8,6 C 74 % 1019,2 hPa 0,0 l/m 0,0 km/h (0 Bft) W-SW 247 4,2 C 8,6 C
19.09.2012 22:11 8,5 C 74 % 1019,2 hPa 0,0 l/m 0,0 km/h (0 Bft) W-SW 247 4,1 C 8,5 C
19.09.2012 22:16 8,5 C 75 % 1019,3 hPa 0,0 l/m 0,0 km/h (0 Bft) W-SW 247 4,3 C 8,5 C
19.09.2012 22:21 8,4 C 75 % 1019,3 hPa 0,0 l/m 0,0 km/h (0 Bft) W-SW 247 4,2 C 8,4 C
19.09.2012 22:26 8,3 C 75 % 1019,3 hPa 0,0 l/m 0,0 km/h (0 Bft) W-SW 247 4,1 C 8,3 C
19.09.2012 22:31 8,2 C 75 % 1019,4 hPa 0,0 l/m 0,0 km/h (0 Bft) W-SW 247 4,0 C 8,2 C
19.09.2012 22:36 8,1 C 75 % 1019,4 hPa 0,0 l/m 0,0 km/h (0 Bft) W-SW 247 3,9 C 8,1 C
19.09.2012 22:41 7,9 C 75 % 1019,5 hPa 0,0 l/m 0,0 km/h (0 Bft) W-SW 247 3,7 C 7,9 C
19.09.2012 22:46 7,8 C 75 % 1019,5 hPa 0,0 l/m 0,0 km/h (0 Bft) W-SW 247 3,7 C 7,8 C
19.09.2012 22:51 7,6 C 76 % 1019,6 hPa 0,0 l/m 0,0 km/h (0 Bft) W-SW 247 3,6 C 7,6 C
19.09.2012 22:56 7,7 C 77 % 1019,6 hPa 0,0 l/m 0,0 km/h (0 Bft) W-SW 247 3,9 C 7,7 C
19.09.2012 23:01 7,7 C 77 % 1019,6 hPa 0,0 l/m 0,0 km/h (0 Bft) W-SW 247 3,9 C 7,7 C
19.09.2012 23:06 7,6 C 77 % 1019,7 hPa 0,0 l/m 0,0 km/h (0 Bft) W-SW 247 3,8 C 7,6 C
19.09.2012 23:11 7,6 C 77 % 1019,6 hPa 0,0 l/m 0,0 km/h (0 Bft) W 270 3,8 C 7,6 C
19.09.2012 23:16 7,6 C 77 % 1019,7 hPa 0,0 l/m 0,0 km/h (0 Bft) SW 225 3,8 C 7,6 C
19.09.2012 23:21 7,6 C 78 % 1019,7 hPa 0,0 l/m 0,0 km/h (0 Bft) SW 225 4,0 C 7,6 C
19.09.2012 23:26 7,6 C 78 % 1019,7 hPa 0,0 l/m 2,9 km/h (1 Bft) W 270 4,0 C 7,6 C
19.09.2012 23:31 7,6 C 78 % 1019,8 hPa 0,0 l/m 3,6 km/h (1 Bft) W-SW 247 4,0 C 7,6 C
19.09.2012 23:36 7,8 C 78 % 1019,8 hPa 0,0 l/m 4,0 km/h (1 Bft) W-SW 247 4,2 C 7,8 C
19.09.2012 23:41 7,9 C 78 % 1019,9 hPa 0,0 l/m 6,1 km/h (2 Bft) W 270 4,3 C 7,0 C
19.09.2012 23:46 8,1 C 78 % 1020,0 hPa 0,0 l/m 5,8 km/h (2 Bft) W-SW 247 4,5 C 7,3 C
19.09.2012 23:51 8,1 C 77 % 1020,1 hPa 0,0 l/m 7,2 km/h (2 Bft) W-SW 247 4,3 C 7,0 C
19.09.2012 23:56 8,1 C 77 % 1020,1 hPa 0,0 l/m 9,0 km/h (2 Bft) W 270 4,3 C 6,6 C
_ Min-Zeit 22:51 17:06 00:01 - 05:56 - - 22:51 07:31
Minimum _ 7,6 C 45 % 1011,2 hPa - 0,0 km/h (0 Bft) - - 3,6 C 5,7 C
_ Max-Zeit 13:26 07:01 23:51 00:01 11:51 - - 00:01 13:26
Maximum _ 16,4 C 86 % 1020,1 hPa 0,0 l/m 28,1 km/h
W-SW (4 Bft)
- - 10,2 C 16,4 C
Durchschnitt _ 12,3 C 68 % 1015,3 hPa #0,0 l/m 7,6 km/h (2 Bft) W-NW - 6,2 C 12,1 C
(c) by David Heller